Location: *
(49.6619°S, 177.4603°W)
Time: 06:28:53
(UTC+00:00)

Cosmos 1570 Rocket - Pass Details

Date: 31 January 2023
Orbit: 763 x 787 km, 74.1° (Epoch: 01 April)

Event Time Altitude Azimuth Distance (km) Brightness Sun altitude
Exits shadow 11:06:40 42° 335° (NNW) 1,096 4.4 -21.8°
Maximum altitude 11:08:30 88° 250° (WSW) 787 4.0 -21.9°
Drops below altitude 10° 11:13:51 10° 157° (SSE) 2,342 7.2 -22.1°
Sets 11:16:15 0° 156° (SSE) 3,273 8.1 -22.2°
